Flag for Germany Weather past 2 weeks in Luckenwalde, Brandenburg, Germany

Now
78 °F

Passing clouds.


Feels Like: 79 °F
Forecast: 63 / 91 °F
Wind: 3 mph from Southeast

Location: Potsdam

Current Time: Aug 3, 2015 at 9:21:52 PM

Latest Report: Aug 3, 2015 at 9:00 PM


Visibility: 22 mi

Pressure: 30.01 "Hg

Humidity: 41%

Dew point: 53 °F

Location of LuckenwaldeLocation

Historic Weather in Luckenwalde — Graph

°F

Luckenwalde temperature yesterday

Maximum temperature yesterday: 85 °F (at 5:00 PM)
Minimum temperature yesterday: 59 °F (at 7:00 AM)
Average temperature yesterday: 73 °F

Past Weeks' High & Low Weather Summary

 TemperatureHumidityPressure
High89 °F (Aug 3, 6:00 PM)99% (Jul 23, 3:00 AM)30.12 "Hg (Jul 23, 3:00 AM)
Low50 °F (Aug 1, 3:00 AM)21% (Aug 2, 5:00 PM)29.55 "Hg (Jul 27, 4:00 PM)
Average66 °F64%29.87 "Hg
* Reported Jul 19 8:00 PM — Aug 3 8:00 PM, Luckenwalde, Weather by CustomWeather, © 2015

Note: Actual official high and low records may vary slightly from our data, if they occured in-between our weather recording intervals... More about our weather records

Advertising

Luckenwalde weather history for previous 24 hours

 ConditionsComfort  
Time TempWeatherWind HumidityBarometerVisibility
8:00 PM
Mon, Aug 3
82 °FPassing clouds.2 mph34%30.00 "Hg25 mi
7:00 PM87 °FPassing clouds.3 mph27%30.00 "Hg22 mi
6:00 PM89 °FPassing clouds.5 mph25%30.01 "Hg22 mi
5:00 PM89 °FPassing clouds.3 mph25%30.02 "Hg22 mi
4:00 PM88 °FPassing clouds.3 mph25%30.04 "Hg22 mi
3:00 PM89 °FPassing clouds.3 mph27%30.05 "Hg22 mi
2:00 PM87 °FPassing clouds.3 mph26%30.06 "Hg22 mi
1:00 PM85 °FPassing clouds.3 mph30%30.08 "Hg22 mi
12:00 PM82 °FScattered clouds.2 mph36%30.09 "Hg25 mi
11:00 AM78 °FPartly sunny.2 mph43%30.10 "Hg25 mi
10:00 AM72 °FPartly sunny.2 mph52%30.10 "Hg25 mi
9:00 AM67 °FPartly sunny.5 mph59%30.10 "Hg25 mi
8:00 AM63 °FScattered clouds.2 mph72%30.11 "Hg22 mi
7:00 AM58 °FPassing clouds.2 mph87%30.11 "Hg19 mi
6:00 AM57 °FPassing clouds.2 mph85%30.10 "Hg19 mi
5:00 AM59 °FPassing clouds.2 mph77%30.10 "Hg19 mi
4:00 AM62 °FPassing clouds.3 mph71%30.10 "Hg22 mi
3:00 AM63 °FPassing clouds.5 mph69%30.11 "Hg25 mi
2:00 AM65 °FPassing clouds.5 mph64%30.11 "Hg25 mi
1:00 AM66 °FPassing clouds.5 mph65%30.12 "Hg25 mi
11:00 PM
Sun, Aug 2
69 °FPassing clouds.5 mph55%30.10 "Hg22 mi
10:00 PM71 °FPassing clouds.3 mph50%30.10 "Hg22 mi
9:00 PM74 °FPassing clouds.3 mph46%30.09 "Hg25 mi
Weather by CustomWeather, © 2015

See weather overviewHow to use our weather pages